| time (UTC) | temp F | wind direction | speed MPH | gust MPH | rain 1hr in | rain 24hr in | rain mn in | humidity % | barometer mb |
| 20260901135711 | 72 | 276 | 2.0 | 7.0 | 0.00 | 0.03 | 0.03 | 65 | 1018.1 |
| 20260901134711 | 71 | 292 | 3.0 | 7.0 | 0.00 | 0.03 | 0.03 | 64 | 1018.1 |
| 20260901133711 | 72 | 328 | 2.0 | 8.0 | 0.00 | 0.03 | 0.03 | 65 | 1018.1 |
| 20260901132711 | 72 | 253 | 4.0 | 9.0 | 0.00 | 0.03 | 0.03 | 66 | 1018.2 |
| 20260901131711 | 71 | 358 | 3.0 | 9.0 | 0.00 | 0.03 | 0.03 | 69 | 1018.3 |
| 20260901130711 | 69 | 299 | 4.0 | 9.0 | 0.00 | 0.03 | 0.03 | 72 | 1018.4 |
| 20260901125712 | 68 | 288 | 3.0 | 7.0 | 0.00 | 0.03 | 0.03 | 74 | 1018.3 |
| 20260901124711 | 68 | 230 | 3.0 | 7.0 | 0.00 | 0.03 | 0.03 | 74 | 1018.4 |
| 20260901122712 | 69 | 315 | 4.0 | 10.0 | 0.00 | 0.03 | 0.03 | 72 | 1018.4 |
| 20260901121712 | 70 | 355 | 3.0 | 10.0 | 0.00 | 0.03 | 0.03 | 73 | 1018.3 |
| 20260901120712 | 71 | 269 | 6.0 | 9.0 | 0.00 | 0.03 | 0.03 | 69 | 1018.2 |
| 20260901113710 | 69 | 282 | 4.0 | 10.0 | 0.00 | 0.03 | 0.03 | 78 | 1018.2 |
| 20260901112710 | 68 | 249 | 3.0 | 8.0 | 0.00 | 0.03 | 0.03 | 78 | 1018.3 |
| 20260901111710 | 68 | 279 | 3.0 | 10.0 | 0.00 | 0.03 | 0.03 | 79 | 1018.3 |
| 20260901110710 | 67 | 251 | 6.0 | 10.0 | 0.00 | 0.03 | 0.03 | 81 | 1018.3 |
| 20260901105710 | 67 | 188 | 4.0 | 8.0 | 0.00 | 0.10 | 0.03 | 82 | 1018.2 |
| 20260901104710 | 65 | 259 | 6.0 | 10.0 | 0.01 | 0.10 | 0.03 | 84 | 1018.2 |
| 20260901103710 | 65 | 267 | 4.0 | 7.0 | 0.02 | 0.10 | 0.03 | 85 | 1018.4 |
| 20260901102710 | 64 | 255 | 3.0 | 6.0 | 0.03 | 0.10 | 0.03 | 87 | 1018.3 |
| 20260901100710 | 63 | 302 | 3.0 | 7.0 | 0.03 | 0.10 | 0.03 | 88 | 1018.4 |
| 20260901094710 | 63 | 240 | 6.0 | 11.0 | 0.02 | 0.09 | 0.02 | 85 | 1018.2 |
| 20260901093710 | 64 | 327 | 5.0 | 11.0 | 0.02 | 0.09 | 0.02 | 85 | 1018.1 |
| 20260901092711 | 64 | 253 | 4.0 | 9.0 | 0.00 | 0.07 | 0.00 | 84 | 1017.9 |
| 20260901091710 | 64 | 247 | 5.0 | 9.0 | 0.00 | 0.07 | 0.00 | 84 | 1017.9 |
| 20260901090711 | 64 | 251 | 4.0 | 9.0 | 0.00 | 0.07 | 0.00 | 84 | 1017.9 |
| 20260901084711 | 63 | 258 | 6.0 | 11.0 | 0.00 | 0.08 | 0.00 | 85 | 1017.8 |
| 20260901083711 | 63 | 228 | 6.0 | 12.0 | 0.00 | 0.08 | 0.00 | 85 | 1017.9 |
| 20260901081711 | 63 | 178 | 4.0 | 11.0 | 0.00 | 0.08 | 0.00 | 86 | 1017.7 |
| 20260901080711 | 63 | 259 | 6.0 | 12.0 | 0.00 | 0.08 | 0.00 | 86 | 1017.5 |
| 20260901075711 | 63 | 242 | 3.0 | 6.0 | 0.00 | 0.08 | 0.00 | 87 | 1017.5 |
| 20260901073711 | 63 | 197 | 3.0 | 9.0 | 0.00 | 0.08 | 0.00 | 88 | 1017.3 |
| 20260901071711 | 62 | 209 | 3.0 | 10.0 | 0.00 | 0.08 | 0.00 | 88 | 1017.1 |
| 20260901070711 | 62 | 242 | 3.0 | 7.0 | 0.00 | 0.08 | 0.00 | 89 | 1017.1 |
| 20260901065711 | 62 | 269 | 3.0 | 10.0 | 0.00 | 0.08 | 0.00 | 89 | 1017.2 |
| 20260901064711 | 61 | 253 | 3.0 | 7.0 | 0.00 | 0.08 | 0.00 | 90 | 1017.1 |
| 20260901062711 | 61 | 263 | 2.0 | 4.0 | 0.00 | 0.08 | 0.00 | 90 | 1017.1 |
| 20260901061711 | 61 | 205 | 2.0 | 6.0 | 0.00 | 0.08 | 0.00 | 90 | 1017.1 |
| 20260901060711 | 60 | 222 | 2.0 | 4.0 | 0.00 | 0.08 | 0.00 | 90 | 1016.8 |
| 20260901055712 | 60 | 232 | 2.0 | 5.0 | 0.00 | 0.08 | 0.00 | 91 | 1016.8 |
| 20260901054711 | 60 | 214 | 3.0 | 7.0 | 0.00 | 0.08 | 0.00 | 91 | 1016.8 |
| 20260901052712 | 60 | 251 | 3.0 | 6.0 | 0.00 | 0.08 | 0.00 | 91 | 1016.7 |
| 20260901045712 | 59 | 253 | 3.0 | 5.0 | 0.00 | 0.08 | 0.00 | 91 | 1016.5 |
| 20260901043712 | 58 | 232 | 2.0 | 5.0 | 0.00 | 0.08 | 0.00 | 90 | 1016.2 |
| 20260901042713 | 58 | 217 | 2.0 | 4.0 | 0.00 | 0.08 | 0.00 | 90 | 1016.0 |
| 20260901041712 | 58 | 210 | 1.0 | 3.0 | 0.00 | 0.08 | 0.00 | 90 | 1016.0 |
| 20260901040712 | 59 | 210 | 1.0 | 4.0 | 0.00 | 0.08 | 0.00 | 90 | 1016.0 |
| 20260901035712 | 58 | 247 | 1.0 | 3.0 | 0.00 | 0.08 | 0.00 | 90 | 1016.0 |
| 20260901034708 | 58 | 240 | 0.0 | 2.0 | 0.00 | 0.08 | 0.00 | 89 | 1015.9 |
| 20260901032709 | 59 | 240 | 1.0 | 2.0 | 0.00 | 0.08 | 0.00 | 88 | 1015.8 |
| 20260901031708 | 59 | 240 | 1.0 | 3.0 | 0.00 | 0.08 | 0.00 | 88 | 1015.8 |
| 20260901030709 | 59 | 240 | 1.0 | 3.0 | 0.00 | 0.08 | 0.00 | 88 | 1015.6 |
| 20260901025708 | 60 | 241 | 2.0 | 4.0 | 0.00 | 0.08 | 0.00 | 88 | 1015.7 |
| 20260901024708 | 60 | 242 | 2.0 | 8.0 | 0.00 | 0.08 | 0.00 | 88 | 1015.7 |
| 20260901023709 | 60 | 242 | 2.0 | 4.0 | 0.00 | 0.08 | 0.00 | 88 | 1015.6 |
| 20260901022709 | 60 | 244 | 2.0 | 6.0 | 0.00 | 0.08 | 0.00 | 88 | 1015.5 |
| 20260901021709 | 60 | 257 | 2.0 | 5.0 | 0.00 | 0.08 | 0.00 | 88 | 1015.6 |
| 20260901020709 | 60 | 224 | 2.0 | 5.0 | 0.00 | 0.08 | 0.00 | 88 | 1015.6 |
| 20260901015709 | 60 | 257 | 2.0 | 7.0 | 0.00 | 0.08 | 0.00 | 88 | 1015.6 |
| 20260901013709 | 60 | 238 | 5.0 | 10.0 | 0.00 | 0.08 | 0.00 | 88 | 1015.5 |
| 20260901012709 | 60 | 246 | 3.0 | 7.0 | 0.00 | 0.08 | 0.00 | 88 | 1015.6 |
| 20260901011709 | 60 | 247 | 3.0 | 8.0 | 0.00 | 0.08 | 0.00 | 87 | 1015.4 |
| 20260901005709 | 60 | 241 | 3.0 | 6.0 | 0.00 | 0.08 | 0.00 | 87 | 1015.5 |
| 20260901004709 | 60 | 221 | 2.0 | 4.0 | 0.00 | 0.08 | 0.00 | 87 | 1015.3 |
| 20260901003709 | 60 | 229 | 2.0 | 5.0 | 0.00 | 0.08 | 0.00 | 87 | 1015.5 |
| 20260901002709 | 60 | 241 | 3.0 | 5.0 | 0.00 | 0.08 | 0.00 | 86 | 1015.5 |
| 20260901001709 | 60 | 256 | 3.0 | 6.0 | 0.00 | 0.08 | 0.00 | 86 | 1015.4 |
| 20260901000709 | 60 | 238 | 3.0 | 5.0 | 0.00 | 0.08 | 0.00 | 86 | 1015.3 |
| 20260831235709 | 60 | 230 | 3.0 | 5.0 | 0.00 | 0.08 | 0.00 | 86 | 1015.3 |
| 20260831234709 | 60 | 241 | 2.0 | 5.0 | 0.00 | 0.08 | 0.00 | 85 | 1015.4 |
| 20260831233709 | 60 | 242 | 2.0 | 5.0 | 0.00 | 0.08 | 0.00 | 85 | 1015.2 |
| 20260831231709 | 60 | 234 | 2.0 | 4.0 | 0.00 | 0.08 | 0.00 | 83 | 1015.3 |
| 20260831225710 | 61 | 242 | 2.0 | 5.0 | 0.00 | 0.08 | 0.00 | 82 | 1015.3 |
| 20260831224709 | 61 | 253 | 3.0 | 7.0 | 0.00 | 0.08 | 0.00 | 82 | 1015.2 |
| 20260831222710 | 61 | 234 | 3.0 | 8.0 | 0.00 | 0.08 | 0.00 | 80 | 1015.1 |
| 20260831220710 | 61 | 254 | 3.0 | 6.0 | 0.00 | 0.08 | 0.00 | 79 | 1014.9 |
| 20260831215710 | 61 | 243 | 3.0 | 6.0 | 0.00 | 0.08 | 0.08 | 79 | 1015.0 |
| 20260831214710 | 61 | 252 | 2.0 | 4.0 | 0.00 | 0.08 | 0.08 | 79 | 1014.9 |
| 20260831213710 | 61 | 275 | 2.0 | 7.0 | 0.00 | 0.08 | 0.08 | 78 | 1014.9 |
| 20260831212710 | 61 | 219 | 2.0 | 5.0 | 0.00 | 0.08 | 0.08 | 78 | 1014.8 |
| 20260831211710 | 61 | 228 | 2.0 | 4.0 | 0.00 | 0.08 | 0.08 | 77 | 1014.8 |
| 20260831210710 | 61 | 228 | 2.0 | 5.0 | 0.00 | 0.08 | 0.08 | 76 | 1014.6 |
| 20260831205710 | 62 | 243 | 1.0 | 4.0 | 0.00 | 0.08 | 0.08 | 75 | 1014.6 |
| 20260831204710 | 62 | 243 | 1.0 | 3.0 | 0.00 | 0.08 | 0.08 | 74 | 1014.5 |
| 20260831203710 | 62 | 243 | 1.0 | 4.0 | 0.00 | 0.08 | 0.08 | 73 | 1014.5 |
| 20260831202710 | 62 | 243 | 3.0 | 5.0 | 0.00 | 0.08 | 0.08 | 73 | 1014.4 |
| 20260831201712 | 62 | 244 | 3.0 | 6.0 | 0.00 | 0.08 | 0.08 | 73 | 1014.3 |
| 20260831195710 | 62 | 253 | 3.0 | 7.0 | 0.00 | 0.08 | 0.08 | 73 | 1014.0 |
| 20260831194710 | 62 | 249 | 3.0 | 5.0 | 0.00 | 0.08 | 0.08 | 73 | 1013.8 |
| 20260831193710 | 63 | 250 | 3.0 | 6.0 | 0.00 | 0.08 | 0.08 | 73 | 1013.8 |
| 20260831192710 | 63 | 249 | 4.0 | 6.0 | 0.00 | 0.08 | 0.08 | 72 | 1013.8 |
| 20260831191711 | 63 | 247 | 2.0 | 4.0 | 0.00 | 0.08 | 0.08 | 72 | 1013.6 |
| 20260831190711 | 64 | 247 | 3.0 | 6.0 | 0.00 | 0.08 | 0.08 | 71 | 1013.5 |
| 20260831185711 | 64 | 253 | 3.0 | 6.0 | 0.00 | 0.08 | 0.08 | 70 | 1013.4 |
| 20260831182711 | 66 | 249 | 4.0 | 9.0 | 0.00 | 0.08 | 0.08 | 66 | 1012.7 |
| 20260831181711 | 66 | 246 | 4.0 | 7.0 | 0.00 | 0.08 | 0.08 | 65 | 1012.6 |
| 20260831180711 | 66 | 237 | 4.0 | 9.0 | 0.00 | 0.08 | 0.08 | 65 | 1012.1 |
| 20260831173711 | 67 | 282 | 5.0 | 13.0 | 0.00 | 0.08 | 0.08 | 63 | 1011.7 |
| 20260831172711 | 68 | 261 | 4.0 | 10.0 | 0.00 | 0.08 | 0.08 | 62 | 1011.6 |
| 20260831171711 | 68 | 328 | 4.0 | 10.0 | 0.00 | 0.08 | 0.08 | 61 | 1011.4 |
| 20260831170711 | 68 | 254 | 4.0 | 9.0 | 0.00 | 0.08 | 0.08 | 61 | 1011.2 |
| 20260831165711 | 69 | 273 | 6.0 | 14.0 | 0.00 | 0.08 | 0.08 | 59 | 1011.2 |
| 20260831164711 | 69 | 245 | 7.0 | 14.0 | 0.00 | 0.08 | 0.08 | 58 | 1011.1 |
| 20260831163711 | 69 | 310 | 7.0 | 15.0 | 0.00 | 0.08 | 0.08 | 58 | 1011.0 |
| 20260831162711 | 69 | 313 | 9.0 | 19.0 | 0.00 | 0.08 | 0.08 | 57 | 1011.0 |
| 20260831161711 | 70 | 261 | 5.0 | 11.0 | 0.00 | 0.08 | 0.08 | 59 | 1011.0 |
| 20260831160711 | 70 | 309 | 7.0 | 15.0 | 0.00 | 0.08 | 0.08 | 59 | 1011.0 |
| 20260831155713 | 70 | 262 | 10.0 | 18.0 | 0.00 | 0.08 | 0.08 | 58 | 1010.9 |
| 20260831154711 | 70 | 299 | 4.0 | 15.0 | 0.00 | 0.08 | 0.08 | 63 | 1010.5 |
| 20260831153711 | 70 | 280 | 7.0 | 14.0 | 0.00 | 0.08 | 0.08 | 62 | 1010.5 |
| 20260831152711 | 69 | 300 | 7.0 | 14.0 | 0.00 | 0.08 | 0.08 | 62 | 1010.3 |
| 20260831151712 | 70 | 256 | 5.0 | 10.0 | 0.00 | 0.08 | 0.08 | 62 | 1010.3 |
| 20260831150712 | 71 | 247 | 5.0 | 15.0 | 0.00 | 0.08 | 0.08 | 62 | 1009.9 |
| 20260831144713 | 70 | 268 | 7.0 | 16.0 | 0.00 | 0.08 | 0.08 | 63 | 1009.7 |
| 20260831143713 | 70 | 244 | 11.0 | 20.0 | 0.00 | 0.08 | 0.08 | 64 | 1009.6 |
| 20260831141712 | 69 | 188 | 9.0 | 17.0 | 0.00 | 0.08 | 0.08 | 69 | 1009.5 |